TUI5AL EDDL-LEPA

Flight info

Callsign TUI5AL
Flight time 2h 9m
Altitude 24000
Route MODRU2T/23L MODRU Z283 LNO/N0446F390 Z283 SOPOK DCT ROUSY DCT GTQ DCT POGOL DCT LASAT DCT MOROK DCT GILIR DCT GEVEA DCT INCUS DCT BALSI DCT RETNO DCT TUPOX DCT MTG DCT DIVKO DCT VATIR N852 VERSO L129 LUNIK
Aircraft B738/M-SDE2E3FGHIRWXY/LB1

Departure

Time 2026-05-05 13:54
Airport Düsseldorf Airport (EDDL)

Arrival

Time 2026-05-05 16:03
Airport Palma de Mallorca Airport (LEPA)
Time Latitude Longitude Altitude Speed Heading
2026-05-05 12:16 51.28041 6.76367 155 ft 0 kts 197°
2026-05-05 13:43 51.28044 6.76368 154 ft 2 kts 197°
2026-05-05 13:43 51.28057 6.76378 154 ft 2 kts 217°
2026-05-05 13:44 51.28068 6.76394 154 ft 2 kts 230°
2026-05-05 13:44 51.28076 6.76413 154 ft 2 kts 245°
2026-05-05 13:44 51.28080 6.76435 154 ft 2 kts 261°
2026-05-05 13:44 51.28081 6.76459 154 ft 2 kts 276°
2026-05-05 13:45 51.28078 6.76482 154 ft 2 kts 291°
2026-05-05 13:45 51.28071 6.76503 154 ft 2 kts 300°
2026-05-05 13:45 51.28066 6.76521 154 ft 0 kts 296°
2026-05-05 13:45 51.28066 6.76522 154 ft 0 kts 296°
2026-05-05 13:47 51.28078 6.76483 154 ft 9 kts 300°
2026-05-05 13:48 51.28120 6.76379 154 ft 11 kts 306°
2026-05-05 13:48 51.28161 6.76283 154 ft 9 kts 308°
2026-05-05 13:48 51.28200 6.76212 154 ft 6 kts 303°
2026-05-05 13:48 51.28204 6.76203 154 ft 0 kts 300°
2026-05-05 13:49 51.28205 6.76189 154 ft 3 kts 272°
2026-05-05 13:49 51.28180 6.76121 154 ft 11 kts 231°
2026-05-05 13:49 51.28112 6.75982 154 ft 19 kts 233°
2026-05-05 13:50 51.28036 6.75825 154 ft 16 kts 233°
2026-05-05 13:50 51.27971 6.75686 154 ft 14 kts 234°
2026-05-05 13:50 51.27951 6.75591 154 ft 6 kts 285°
2026-05-05 13:50 51.27974 6.75541 154 ft 4 kts 324°
2026-05-05 13:51 51.27992 6.75526 154 ft 1 kts 336°
2026-05-05 13:51 51.27998 6.75522 154 ft 5 kts 336°
2026-05-05 13:51 51.28068 6.75483 154 ft 8 kts 356°
2026-05-05 13:51 51.28110 6.75516 154 ft 6 kts 47°
2026-05-05 13:52 51.28121 6.75536 154 ft 0 kts 53°
2026-05-05 13:53 51.28213 6.75726 154 ft 56 kts 51°
2026-05-05 13:53 51.28587 6.76511 154 ft 119 kts 53°
2026-05-05 13:53 51.29193 6.77786 170 ft 167 kts 53°
2026-05-05 13:54 51.29870 6.79279 776 ft 167 kts 52°
2026-05-05 13:54 51.30536 6.80754 1435 ft 168 kts 53°
2026-05-05 13:54 51.31305 6.82143 2006 ft 170 kts 52°
2026-05-05 13:54 51.32130 6.83634 2119 ft 195 kts 30°
2026-05-05 13:55 51.33491 6.84211 2288 ft 220 kts 355°
2026-05-05 13:55 51.34921 6.83170 2726 ft 236 kts 314°
2026-05-05 13:55 51.35632 6.80845 3405 ft 243 kts 277°
2026-05-05 13:55 51.35308 6.78211 4060 ft 248 kts 239°
2026-05-05 13:56 51.34047 6.76389 4771 ft 248 kts 204°
2026-05-05 13:56 51.32458 6.75478 5532 ft 248 kts 197°
2026-05-05 13:56 51.30817 6.74566 6094 ft 258 kts 206°
2026-05-05 13:56 51.29438 6.72645 6502 ft 273 kts 234°
2026-05-05 13:57 51.28418 6.70077 7224 ft 277 kts 237°
2026-05-05 13:57 51.27390 6.67494 7892 ft 281 kts 236°
2026-05-05 13:57 51.26302 6.64876 8613 ft 284 kts 235°
2026-05-05 13:57 51.25190 6.62269 9318 ft 288 kts 235°
2026-05-05 13:58 51.24054 6.59632 10038 ft 290 kts 234°
2026-05-05 13:58 51.22886 6.56941 10447 ft 305 kts 234°
2026-05-05 13:58 51.21645 6.54114 10695 ft 325 kts 234°
2026-05-05 13:58 51.20320 6.51093 11072 ft 338 kts 234°
2026-05-05 13:59 51.17585 6.44882 12461 ft 346 kts 234°
2026-05-05 13:59 51.16213 6.41796 13150 ft 349 kts 234°
2026-05-05 14:00 51.13386 6.35438 14547 ft 356 kts 234°
2026-05-05 14:00 51.12239 6.32835 15116 ft 358 kts 234°
2026-05-05 14:00 51.10812 6.29575 15795 ft 362 kts 234°
2026-05-05 14:00 51.09396 6.26314 16454 ft 365 kts 234°
2026-05-05 14:01 51.07942 6.22944 17048 ft 370 kts 234°
2026-05-05 14:01 51.06488 6.19562 17665 ft 374 kts 234°
2026-05-05 14:01 51.05029 6.16157 18257 ft 378 kts 234°
2026-05-05 14:01 51.03526 6.12721 18906 ft 379 kts 231°
2026-05-05 14:02 51.01736 6.09732 19490 ft 380 kts 218°
2026-05-05 14:02 50.99627 6.07181 20168 ft 380 kts 214°
2026-05-05 14:02 50.97428 6.04857 20726 ft 383 kts 212°
2026-05-05 14:02 50.95200 6.02587 21316 ft 384 kts 212°
2026-05-05 14:03 50.92942 6.00373 21873 ft 386 kts 209°
2026-05-05 14:03 50.90581 5.98266 22432 ft 388 kts 208°
2026-05-05 14:03 50.88248 5.96201 22962 ft 390 kts 209°
2026-05-05 14:03 50.85904 5.94101 23485 ft 392 kts 209°
2026-05-05 14:04 50.83522 5.91949 23993 ft 394 kts 209°
2026-05-05 14:04 50.81162 5.89798 24481 ft 396 kts 210°
2026-05-05 14:04 50.78788 5.87627 24969 ft 398 kts 209°
2026-05-05 14:04 50.76404 5.85473 25475 ft 399 kts 209°
2026-05-05 14:05 50.73931 5.83406 25811 ft 403 kts 202°
2026-05-05 14:05 50.71211 5.82292 26148 ft 407 kts 185°
2026-05-05 14:05 50.68389 5.82467 26642 ft 408 kts 174°
2026-05-05 14:05 50.65586 5.83011 26995 ft 412 kts 173°
2026-05-05 14:06 50.62747 5.83632 27410 ft 414 kts 172°
2026-05-05 14:06 50.59929 5.84318 27796 ft 416 kts 172°
2026-05-05 14:06 50.57044 5.85073 28185 ft 419 kts 171°
2026-05-05 14:06 50.54189 5.85824 28576 ft 420 kts 171°
2026-05-05 14:07 50.51297 5.86571 28956 ft 422 kts 171°
2026-05-05 14:07 50.48431 5.87286 29328 ft 424 kts 172°
2026-05-05 14:07 50.45536 5.87947 29718 ft 424 kts 173°
2026-05-05 14:07 50.42626 5.88556 30170 ft 424 kts 173°
2026-05-05 14:08 50.39703 5.89143 30603 ft 423 kts 173°
2026-05-05 14:08 50.36801 5.89736 31034 ft 422 kts 173°
2026-05-05 14:08 50.33891 5.90384 31461 ft 421 kts 172°
2026-05-05 14:08 50.31023 5.91091 31873 ft 421 kts 172°
2026-05-05 14:09 50.28140 5.91867 32278 ft 420 kts 171°
2026-05-05 14:09 50.25294 5.92673 32668 ft 419 kts 171°
2026-05-05 14:09 50.22451 5.93459 33053 ft 419 kts 171°
2026-05-05 14:09 50.19579 5.94223 33442 ft 418 kts 171°
2026-05-05 14:10 50.16716 5.94964 33810 ft 417 kts 172°
2026-05-05 14:10 50.13872 5.95682 34170 ft 416 kts 172°
2026-05-05 14:10 50.11021 5.96393 34522 ft 416 kts 172°
2026-05-05 14:10 50.08199 5.97088 34862 ft 415 kts 172°
2026-05-05 14:11 50.05341 5.97787 35198 ft 414 kts 172°
2026-05-05 14:11 50.02539 5.98468 35509 ft 414 kts 172°
2026-05-05 14:11 49.99705 5.99153 35822 ft 413 kts 172°
2026-05-05 14:11 49.96858 5.99839 36126 ft 413 kts 172°
2026-05-05 14:12 49.94032 6.00518 36405 ft 412 kts 173°
2026-05-05 14:12 49.91229 6.01189 36679 ft 412 kts 173°
2026-05-05 14:12 49.88430 6.01858 36939 ft 412 kts 173°
2026-05-05 14:12 49.85568 6.02541 37203 ft 412 kts 173°
2026-05-05 14:13 49.82755 6.03212 37455 ft 412 kts 173°
2026-05-05 14:13 49.79942 6.03880 37707 ft 412 kts 173°
2026-05-05 14:13 49.77132 6.04548 37959 ft 412 kts 173°
2026-05-05 14:13 49.74276 6.05225 38204 ft 413 kts 173°
2026-05-05 14:14 49.71463 6.05884 38429 ft 413 kts 172°
2026-05-05 14:14 49.68631 6.06552 38652 ft 413 kts 172°
2026-05-05 14:14 49.65809 6.07221 38825 ft 414 kts 172°
2026-05-05 14:14 49.62967 6.07893 38832 ft 416 kts 172°
2026-05-05 14:15 49.57281 6.09236 38831 ft 411 kts 172°
2026-05-05 14:15 49.51684 6.10564 38832 ft 409 kts 171°
2026-05-05 14:16 49.46331 6.13396 38831 ft 415 kts 150°
2026-05-05 14:16 49.41672 6.18779 38832 ft 420 kts 143°
2026-05-05 14:17 49.37152 6.24435 38831 ft 420 kts 143°
2026-05-05 14:17 49.32642 6.30037 38855 ft 418 kts 143°
2026-05-05 14:18 49.28148 6.35593 38859 ft 418 kts 143°
2026-05-05 14:18 49.23608 6.41182 38857 ft 419 kts 143°
2026-05-05 14:19 49.19069 6.46753 38859 ft 422 kts 144°
2026-05-05 14:19 49.14500 6.52342 38859 ft 422 kts 144°
2026-05-05 14:20 49.09922 6.57929 38832 ft 421 kts 144°
2026-05-05 14:20 49.05386 6.63450 38831 ft 420 kts 144°
2026-05-05 14:21 49.01392 6.67872 38831 ft 418 kts 153°
2026-05-05 14:21 48.96039 6.70931 38834 ft 412 kts 173°
2026-05-05 14:22 48.90338 6.71327 38833 ft 412 kts 182°
2026-05-05 14:22 48.84641 6.71095 38831 ft 412 kts 182°
2026-05-05 14:23 48.78963 6.70860 38832 ft 411 kts 182°
2026-05-05 14:23 48.73269 6.70632 38831 ft 411 kts 182°
2026-05-05 14:24 48.67541 6.70407 38832 ft 412 kts 182°
2026-05-05 14:24 48.61839 6.70183 38832 ft 412 kts 182°
2026-05-05 14:25 48.56151 6.69961 38832 ft 412 kts 182°
2026-05-05 14:25 48.50442 6.69740 38832 ft 412 kts 182°
2026-05-05 14:26 48.44750 6.69520 38832 ft 412 kts 182°
2026-05-05 14:26 48.39029 6.69299 38832 ft 412 kts 182°
2026-05-05 14:27 48.33330 6.69080 38832 ft 412 kts 182°
2026-05-05 14:27 48.27602 6.68859 38832 ft 412 kts 182°
2026-05-05 14:28 48.21905 6.68645 38831 ft 412 kts 183°
2026-05-05 14:28 48.16195 6.68429 38832 ft 412 kts 183°
2026-05-05 14:29 48.10490 6.68208 38861 ft 412 kts 183°
2026-05-05 14:29 48.04809 6.67990 38859 ft 412 kts 183°
2026-05-05 14:30 47.99108 6.67773 38859 ft 412 kts 183°
2026-05-05 14:30 47.93407 6.67557 38859 ft 412 kts 183°
2026-05-05 14:31 47.87955 6.67351 38859 ft 412 kts 183°
2026-05-05 14:31 47.82267 6.67137 38859 ft 412 kts 183°
2026-05-05 14:32 47.76542 6.66922 38859 ft 412 kts 183°
2026-05-05 14:32 47.70869 6.66719 38858 ft 410 kts 184°
2026-05-05 14:33 47.65181 6.66504 38859 ft 408 kts 184°
2026-05-05 14:33 47.59546 6.66289 38859 ft 409 kts 184°
2026-05-05 14:34 47.53865 6.66075 38859 ft 410 kts 184°
2026-05-05 14:34 47.48217 6.65864 38859 ft 410 kts 184°
2026-05-05 14:35 47.42563 6.65215 38858 ft 407 kts 193°
2026-05-05 14:35 47.39880 6.64076 38857 ft 405 kts 204°
2026-05-05 14:35 47.37359 6.62175 38861 ft 405 kts 212°
2026-05-05 14:36 47.32904 6.57119 38860 ft 406 kts 220°
2026-05-05 14:36 47.28652 6.51757 38859 ft 406 kts 220°
2026-05-05 14:37 47.24361 6.46363 38860 ft 406 kts 220°
2026-05-05 14:37 47.20123 6.41060 38885 ft 399 kts 220°
2026-05-05 14:38 47.15900 6.35790 38886 ft 399 kts 220°
2026-05-05 14:38 47.11659 6.30519 38886 ft 401 kts 219°
2026-05-05 14:39 47.07229 6.25656 38884 ft 401 kts 208°
2026-05-05 14:39 47.04674 6.24064 38883 ft 402 kts 196°
2026-05-05 14:39 47.01935 6.23310 38891 ft 404 kts 188°
2026-05-05 14:40 46.96346 6.22535 38885 ft 406 kts 187°
2026-05-05 14:40 46.90756 6.21813 38886 ft 405 kts 187°
2026-05-05 14:41 46.85443 6.21117 38886 ft 405 kts 187°
2026-05-05 14:41 46.79867 6.20382 38886 ft 405 kts 187°
2026-05-05 14:42 46.74256 6.19640 38886 ft 405 kts 187°
2026-05-05 14:42 46.68644 6.18906 38915 ft 409 kts 187°
2026-05-05 14:43 46.62998 6.18157 38912 ft 410 kts 187°
2026-05-05 14:43 46.57337 6.17409 38912 ft 408 kts 187°
2026-05-05 14:44 46.51735 6.16671 38913 ft 408 kts 187°
2026-05-05 14:44 46.46108 6.15932 38913 ft 408 kts 187°
2026-05-05 14:45 46.40454 6.15191 38913 ft 409 kts 187°
2026-05-05 14:45 46.34838 6.14456 38913 ft 408 kts 187°
2026-05-05 14:46 46.29196 6.13720 38913 ft 408 kts 187°
2026-05-05 14:46 46.23568 6.12912 38913 ft 407 kts 190°
2026-05-05 14:47 46.18007 6.11667 38912 ft 404 kts 192°
2026-05-05 14:47 46.12472 6.10392 38913 ft 404 kts 192°
2026-05-05 14:48 46.06960 6.09146 38913 ft 405 kts 191°
2026-05-05 14:48 46.01411 6.07906 38913 ft 405 kts 191°
2026-05-05 14:49 45.95852 6.06671 38913 ft 405 kts 191°
2026-05-05 14:49 45.90305 6.05445 38913 ft 405 kts 191°
2026-05-05 14:50 45.85106 6.04299 38913 ft 405 kts 191°
2026-05-05 14:50 45.79567 6.03073 38913 ft 405 kts 191°
2026-05-05 14:51 45.74000 6.01844 38911 ft 405 kts 191°
2026-05-05 14:51 45.68491 6.00632 38885 ft 403 kts 192°
2026-05-05 14:52 45.62983 5.99420 38886 ft 402 kts 192°
2026-05-05 14:52 45.57446 5.98203 38886 ft 403 kts 192°
2026-05-05 14:53 45.51933 5.96995 38886 ft 404 kts 192°
2026-05-05 14:53 45.46422 5.95742 38885 ft 403 kts 194°
2026-05-05 14:54 45.40976 5.94042 38886 ft 402 kts 195°
2026-05-05 14:54 45.35545 5.92305 38886 ft 402 kts 195°
2026-05-05 14:55 45.30127 5.90594 38886 ft 402 kts 195°
2026-05-05 14:55 45.24655 5.88881 38886 ft 402 kts 195°
2026-05-05 14:56 45.19261 5.87210 38885 ft 399 kts 195°
2026-05-05 14:57 45.08385 5.83831 38886 ft 399 kts 195°
2026-05-05 14:57 45.02945 5.82150 38886 ft 400 kts 195°
2026-05-05 14:58 44.97552 5.80487 38886 ft 400 kts 195°
2026-05-05 14:58 44.92123 5.78817 38886 ft 399 kts 195°
2026-05-05 14:59 44.86889 5.77210 38886 ft 400 kts 195°
2026-05-05 14:59 44.81478 5.75552 38886 ft 400 kts 195°
2026-05-05 15:00 44.76971 5.74174 38885 ft 401 kts 195°
2026-05-05 15:00 44.70663 5.72256 38885 ft 397 kts 196°
2026-05-05 15:01 44.65331 5.70633 38886 ft 391 kts 196°
2026-05-05 15:01 44.59998 5.69006 38887 ft 394 kts 196°
2026-05-05 15:02 44.54675 5.67386 38886 ft 396 kts 196°
2026-05-05 15:02 44.49322 5.65764 38885 ft 395 kts 196°
2026-05-05 15:03 44.43970 5.64146 38886 ft 394 kts 196°
2026-05-05 15:03 44.38677 5.62430 38885 ft 392 kts 200°
2026-05-05 15:04 44.33570 5.59865 38886 ft 391 kts 204°
2026-05-05 15:04 44.28513 5.57119 38886 ft 391 kts 204°
2026-05-05 15:05 44.20953 5.53011 38885 ft 390 kts 205°
2026-05-05 15:06 44.15924 5.50266 38886 ft 390 kts 205°
2026-05-05 15:06 44.10895 5.47523 38886 ft 390 kts 205°
2026-05-05 15:07 44.05833 5.44770 38886 ft 390 kts 205°
2026-05-05 15:07 44.00795 5.42035 38915 ft 390 kts 205°
2026-05-05 15:08 43.95755 5.39304 38913 ft 391 kts 205°
2026-05-05 15:08 43.90704 5.36569 38913 ft 391 kts 205°
2026-05-05 15:09 43.85652 5.33842 38913 ft 391 kts 204°
2026-05-05 15:09 43.80623 5.31138 38913 ft 391 kts 204°
2026-05-05 15:10 43.75570 5.28421 38913 ft 391 kts 204°
2026-05-05 15:10 43.70506 5.25718 38912 ft 388 kts 205°
2026-05-05 15:11 43.65514 5.23029 38913 ft 386 kts 205°
2026-05-05 15:11 43.60540 5.20363 38913 ft 386 kts 205°
2026-05-05 15:12 43.55550 5.17694 38913 ft 387 kts 205°
2026-05-05 15:12 43.50563 5.15033 38913 ft 387 kts 205°
2026-05-05 15:13 43.45546 5.12362 38913 ft 387 kts 205°
2026-05-05 15:13 43.40565 5.09606 38913 ft 385 kts 208°
2026-05-05 15:14 43.35972 5.06018 38914 ft 382 kts 216°
2026-05-05 15:14 43.31571 5.01966 38913 ft 382 kts 216°
2026-05-05 15:15 43.27211 4.97891 38913 ft 382 kts 217°
2026-05-05 15:15 43.22819 4.93787 38913 ft 381 kts 217°
2026-05-05 15:16 43.18462 4.89710 38913 ft 380 kts 218°
2026-05-05 15:16 43.14115 4.85633 38913 ft 380 kts 218°
2026-05-05 15:17 43.09793 4.81588 38913 ft 381 kts 218°
2026-05-05 15:17 43.05410 4.77525 38912 ft 381 kts 216°
2026-05-05 15:18 43.00803 4.73941 38912 ft 383 kts 212°
2026-05-05 15:18 42.96144 4.70445 38913 ft 384 kts 212°
2026-05-05 15:19 42.91466 4.66928 38913 ft 384 kts 212°
2026-05-05 15:19 42.86796 4.63409 38912 ft 384 kts 212°
2026-05-05 15:20 42.82166 4.59921 38913 ft 384 kts 213°
2026-05-05 15:20 42.77490 4.56400 38913 ft 384 kts 213°
2026-05-05 15:21 42.72839 4.52910 38914 ft 383 kts 213°
2026-05-05 15:21 42.68248 4.49469 38911 ft 376 kts 213°
2026-05-05 15:22 42.63687 4.46044 38914 ft 377 kts 213°
2026-05-05 15:22 42.59108 4.42613 38913 ft 379 kts 213°
2026-05-05 15:23 42.54508 4.39175 38913 ft 379 kts 213°
2026-05-05 15:23 42.49911 4.35747 38913 ft 378 kts 213°
2026-05-05 15:24 42.45294 4.32317 38913 ft 379 kts 212°
2026-05-05 15:24 42.40710 4.28919 38942 ft 379 kts 213°
2026-05-05 15:25 42.36089 4.25494 38940 ft 379 kts 213°
2026-05-05 15:25 42.31503 4.22094 38940 ft 379 kts 212°
2026-05-05 15:26 42.26891 4.18686 38940 ft 379 kts 212°
2026-05-05 15:26 42.22248 4.15271 38898 ft 380 kts 213°
2026-05-05 15:27 42.17628 4.11866 38886 ft 379 kts 213°
2026-05-05 15:27 42.13023 4.08474 38886 ft 379 kts 213°
2026-05-05 15:28 42.08416 4.05088 38886 ft 379 kts 213°
2026-05-05 15:28 42.03801 4.01703 38886 ft 380 kts 213°
2026-05-05 15:29 41.99165 3.98310 38886 ft 380 kts 213°
2026-05-05 15:29 41.94513 3.94988 38885 ft 381 kts 210°
2026-05-05 15:30 41.89485 3.92709 38887 ft 390 kts 198°
2026-05-05 15:30 41.84136 3.91428 38886 ft 393 kts 196°
2026-05-05 15:31 41.78767 3.90201 38886 ft 392 kts 196°
2026-05-05 15:31 41.73401 3.88971 38887 ft 391 kts 197°
2026-05-05 15:32 41.68104 3.87765 38884 ft 384 kts 197°
2026-05-05 15:32 41.62901 3.86568 38887 ft 384 kts 197°
2026-05-05 15:33 41.57622 3.85352 38886 ft 387 kts 197°
2026-05-05 15:33 41.52341 3.84139 38886 ft 387 kts 197°
2026-05-05 15:34 41.47060 3.82929 38886 ft 386 kts 197°
2026-05-05 15:34 41.41792 3.81724 38886 ft 386 kts 197°
2026-05-05 15:35 41.36524 3.80519 38886 ft 386 kts 197°
2026-05-05 15:35 41.31264 3.79320 38886 ft 386 kts 197°
2026-05-05 15:36 41.25969 3.78114 38886 ft 386 kts 197°
2026-05-05 15:36 41.20702 3.76922 38885 ft 384 kts 197°
2026-05-05 15:37 41.15520 3.75499 38885 ft 378 kts 203°
2026-05-05 15:37 41.10603 3.73190 38887 ft 377 kts 206°
2026-05-05 15:37 41.08155 3.71953 38725 ft 380 kts 207°
2026-05-05 15:38 41.05714 3.70710 38123 ft 382 kts 207°
2026-05-05 15:38 41.03263 3.69461 37665 ft 376 kts 207°
2026-05-05 15:38 41.00858 3.68234 37276 ft 370 kts 207°
2026-05-05 15:38 40.98463 3.67011 36875 ft 363 kts 207°
2026-05-05 15:39 40.96140 3.65821 36347 ft 361 kts 207°
2026-05-05 15:39 40.93814 3.64628 35796 ft 359 kts 207°
2026-05-05 15:39 40.91510 3.63446 35215 ft 358 kts 207°
2026-05-05 15:39 40.89206 3.62265 34604 ft 357 kts 207°
2026-05-05 15:40 40.86908 3.61086 33986 ft 357 kts 208°
2026-05-05 15:40 40.84593 3.59901 33347 ft 357 kts 208°
2026-05-05 15:40 40.82297 3.58726 32680 ft 357 kts 208°
2026-05-05 15:40 40.80003 3.57553 31991 ft 357 kts 208°
2026-05-05 15:41 40.77689 3.56370 31275 ft 358 kts 208°
2026-05-05 15:41 40.75354 3.55178 30540 ft 358 kts 208°
2026-05-05 15:41 40.73077 3.54010 29951 ft 356 kts 207°
2026-05-05 15:41 40.70736 3.52802 29516 ft 365 kts 207°
2026-05-05 15:42 40.68358 3.51586 28948 ft 370 kts 207°
2026-05-05 15:42 40.65986 3.50385 28386 ft 365 kts 207°
2026-05-05 15:42 40.63650 3.49204 27840 ft 359 kts 207°
2026-05-05 15:42 40.61350 3.48040 27297 ft 355 kts 207°
2026-05-05 15:43 40.59077 3.46890 26759 ft 350 kts 207°
2026-05-05 15:43 40.56804 3.45736 26225 ft 353 kts 207°
2026-05-05 15:43 40.54540 3.44585 25675 ft 354 kts 207°
2026-05-05 15:43 40.52250 3.43427 25125 ft 350 kts 207°
2026-05-05 15:44 40.49987 3.42284 24588 ft 345 kts 207°
2026-05-05 15:44 40.47780 3.41169 24060 ft 341 kts 207°
2026-05-05 15:44 40.45551 3.40167 23519 ft 348 kts 202°
2026-05-05 15:44 40.43152 3.39525 22966 ft 355 kts 193°
2026-05-05 15:45 40.40675 3.39420 22419 ft 357 kts 186°
2026-05-05 15:45 40.38239 3.39540 21871 ft 354 kts 185°
2026-05-05 15:45 40.35794 3.39688 21322 ft 351 kts 185°
2026-05-05 15:45 40.33379 3.39832 20783 ft 348 kts 185°
2026-05-05 15:46 40.30976 3.39974 20243 ft 344 kts 185°
2026-05-05 15:46 40.28605 3.40111 19711 ft 341 kts 185°
2026-05-05 15:46 40.26257 3.40247 19180 ft 338 kts 185°
2026-05-05 15:46 40.23924 3.40380 18652 ft 336 kts 184°
2026-05-05 15:47 40.21590 3.40505 18132 ft 343 kts 184°
2026-05-05 15:47 40.19212 3.40641 17582 ft 340 kts 184°
2026-05-05 15:47 40.16860 3.40778 17024 ft 338 kts 184°
2026-05-05 15:47 40.14545 3.40910 16271 ft 341 kts 184°
2026-05-05 15:48 40.12185 3.41042 15460 ft 345 kts 183°
2026-05-05 15:48 40.09754 3.41176 14428 ft 354 kts 183°
2026-05-05 15:48 40.07298 3.41311 13291 ft 363 kts 182°
2026-05-05 15:48 40.04776 3.41450 12362 ft 364 kts 182°
2026-05-05 15:49 40.02303 3.41595 12050 ft 348 kts 182°
2026-05-05 15:49 39.99975 3.41735 11860 ft 332 kts 182°
2026-05-05 15:49 39.97754 3.41869 11714 ft 309 kts 182°
2026-05-05 15:49 39.95670 3.41992 11573 ft 288 kts 182°
2026-05-05 15:50 39.93701 3.42103 11332 ft 280 kts 182°
2026-05-05 15:50 39.91760 3.42206 10930 ft 280 kts 182°
2026-05-05 15:50 39.89846 3.42061 10501 ft 274 kts 199°
2026-05-05 15:50 39.88256 3.40872 10085 ft 268 kts 227°
2026-05-05 15:51 39.87135 3.38949 9699 ft 266 kts 236°
2026-05-05 15:51 39.86077 3.36993 9282 ft 266 kts 235°
2026-05-05 15:51 39.85047 3.35102 8896 ft 265 kts 235°
2026-05-05 15:51 39.83976 3.33124 8516 ft 264 kts 234°
2026-05-05 15:52 39.82948 3.31219 8322 ft 249 kts 234°
2026-05-05 15:52 39.81986 3.29429 8081 ft 237 kts 234°
2026-05-05 15:52 39.81068 3.27721 7832 ft 228 kts 234°
2026-05-05 15:52 39.80180 3.26066 7608 ft 216 kts 234°
2026-05-05 15:53 39.79346 3.24513 7357 ft 206 kts 234°
2026-05-05 15:53 39.78547 3.23026 7079 ft 199 kts 234°
2026-05-05 15:53 39.77756 3.21558 6729 ft 197 kts 234°
2026-05-05 15:53 39.76975 3.20104 6357 ft 196 kts 234°
2026-05-05 15:54 39.76200 3.18664 5990 ft 196 kts 234°
2026-05-05 15:54 39.75428 3.17230 5740 ft 189 kts 234°
2026-05-05 15:54 39.74699 3.15876 5485 ft 183 kts 234°
2026-05-05 15:54 39.73963 3.14515 5085 ft 184 kts 235°
2026-05-05 15:55 39.73290 3.13134 4984 ft 180 kts 239°
2026-05-05 15:55 39.72512 3.11837 5000 ft 186 kts 231°
2026-05-05 15:55 39.71731 3.10501 4988 ft 185 kts 236°
2026-05-05 15:55 39.71024 3.09104 4993 ft 184 kts 238°
2026-05-05 15:56 39.70348 3.07693 4993 ft 185 kts 238°
2026-05-05 15:56 39.69676 3.06268 4994 ft 185 kts 239°
2026-05-05 15:56 39.69010 3.04845 4993 ft 185 kts 239°
2026-05-05 15:56 39.68341 3.03418 4913 ft 188 kts 239°
2026-05-05 15:57 39.67662 3.01966 4659 ft 185 kts 239°
2026-05-05 15:57 39.67001 3.00552 4434 ft 182 kts 239°
2026-05-05 15:57 39.66351 2.99163 4190 ft 182 kts 238°
2026-05-05 15:57 39.65686 2.97745 3932 ft 181 kts 238°
2026-05-05 15:58 39.65037 2.96361 3678 ft 180 kts 238°
2026-05-05 15:58 39.64389 2.94979 3426 ft 180 kts 238°
2026-05-05 15:58 39.63744 2.93603 3175 ft 179 kts 238°
2026-05-05 15:58 39.63093 2.92215 2924 ft 178 kts 238°
2026-05-05 15:59 39.62456 2.90859 2678 ft 178 kts 238°
2026-05-05 15:59 39.61818 2.89500 2426 ft 173 kts 238°
2026-05-05 15:59 39.61218 2.88223 2214 ft 158 kts 237°
2026-05-05 15:59 39.60650 2.87016 1985 ft 155 kts 237°
2026-05-05 16:00 39.60090 2.85823 1788 ft 159 kts 237°
2026-05-05 16:00 39.59528 2.84629 1555 ft 151 kts 237°
2026-05-05 16:00 39.59008 2.83525 1376 ft 139 kts 237°
2026-05-05 16:00 39.58498 2.82442 1183 ft 141 kts 237°
2026-05-05 16:01 39.57992 2.81360 1026 ft 142 kts 239°
2026-05-05 16:01 39.57490 2.80259 857 ft 141 kts 238°
2026-05-05 16:01 39.56979 2.79157 673 ft 141 kts 237°
2026-05-05 16:01 39.56468 2.78082 447 ft 143 kts 236°
2026-05-05 16:02 39.55937 2.76982 239 ft 142 kts 236°
2026-05-05 16:02 39.55426 2.75915 44 ft 138 kts 236°
2026-05-05 16:02 39.55005 2.75032 35 ft 85 kts 238°
2026-05-05 16:02 39.54774 2.74544 35 ft 53 kts 238°
2026-05-05 16:03 39.54602 2.74172 35 ft 39 kts 239°
2026-05-05 16:03 39.54552 2.73933 35 ft 21 kts 264°
2026-05-05 16:03 39.54549 2.73826 35 ft 0 kts 270°
2026-05-05 16:04 39.54550 2.73787 35 ft 7 kts 275°
2026-05-05 16:04 39.54578 2.73744 35 ft 6 kts 349°
2026-05-05 16:05 39.54624 2.73781 35 ft 10 kts 55°
2026-05-05 16:05 39.54667 2.73869 35 ft 11 kts 58°
2026-05-05 16:05 39.54710 2.73944 35 ft 9 kts 31°
2026-05-05 16:05 39.54766 2.73942 35 ft 7 kts
2026-05-05 16:06 39.54804 2.73978 35 ft 7 kts 46°
2026-05-05 16:06 39.54858 2.73987 35 ft 8 kts 337°
2026-05-05 16:06 39.54917 2.73940 35 ft 10 kts 328°
2026-05-05 16:06 39.54979 2.73893 35 ft 8 kts 326°
2026-05-05 16:07 39.54988 2.73854 35 ft 4 kts 238°
2026-05-05 16:07 39.54967 2.73816 35 ft 5 kts 238°
2026-05-05 16:07 39.54948 2.73777 35 ft 3 kts 239°
2026-05-05 16:07 39.54943 2.73765 35 ft 0 kts 238°